Location: Blackwall
(51.5097°N, 0.0016°W)
Time: 08:39:03
(UTC+00:00)

Daily predictions for brighter satellites

Satellite Brightness Start Highest point End
(mag) Time Altitude Azimuth Time Altitude Azimuth Time Altitude Azimuth
Aureole 2 Rocket 2.4 16:47:02 10° SSW 16:50:20 68° ESE 16:53:50 10° NNE
ATLAS 5 CENTAUR R/B 2.6 16:45:39 10° NW 16:50:50 45° NNE 16:56:48 10° ESE
Cosmos 1408 Rocket 3.5 16:47:26 10° N 16:51:51 79° ENE 16:56:17 10° SSE
FENGYUN 3A 4.5 16:47:41 10° S 16:53:02 59° W 16:58:26 10° NNW
Cosmos 2278 Rocket 4.4 16:52:54 10° WNW 16:55:59 15° NNW 16:59:04 10° N
Cosmos 1500 Rocket 3.9 16:52:01 10° N 16:56:16 44° ENE 17:00:26 10° SSE
CZ-4 R/B 2.7 16:57:56 10° ESE 17:01:03 21° ENE 17:04:09 10° NNE
Cosmos 1340 Rocket 2.8 16:57:36 10° S 17:01:35 66° E 17:05:38 10° NNE
Cosmos 1766 Rocket 4.4 16:57:26 10° NNW 17:01:46 57° W 17:06:06 10° S
Cosmos 1408 2.8 17:01:08 10° NNW 17:04:45 74° W 17:08:20 10° S
COSMO-SKYMED 1 4.0 17:03:59 10° NE 17:06:56 18° E 17:09:52 10° SE
Cosmos 836 Rocket 4.5 17:03:28 10° SSW 17:08:41 77° ESE 17:13:58 10° NNE
Cosmos 1607 4.1 17:04:42 10° NW 17:10:49 57° NE 17:16:58 10° ESE
Cosmos 1437 2.5 17:07:57 10° NNW 17:11:03 84° ENE 17:14:07 10° SSE
SeaSat 1 2.4 17:07:20 10° SE 17:12:15 79° ENE 17:17:13 10° NNW
Cosmos 1656 Rocket 3.8 17:08:18 10° SW 17:13:49 78° WNW 17:19:18 10° NNE
Cosmos 2061 Rocket 4.4 17:08:38 10° NNW 17:14:48 68° W 17:20:57 10° S
Cosmos 1825 2.4 17:12:14 10° NNW 17:16:01 76° W 17:19:47 10° S
Cosmos 1867 4.2 17:12:56 10° S 17:17:58 39° ESE 17:22:42 12° NE
Sich 1 3.9 17:16:50 10° N 17:20:35 28° ENE 17:24:20 10° SE
Cosmos 1939 Rocket 4.5 17:19:06 13° E 17:20:51 16° ENE 17:23:27 10° NNE
Cosmos 2219 3.2 17:15:17 10° NNW 17:20:55 67° ENE 17:26:31 10° SE
GEOS 3 Rocket 3.7 17:17:43 10° NE 17:22:55 63° SE 17:28:08 10° SSW
NOAA 12 4.1 17:19:44 10° SSE 17:25:01 68° ENE 17:30:20 10° N
Ariane Rocket 4.2 17:25:09 12° E 17:28:19 21° NE 17:32:00 10° N
Cosmos 2084 3.4 17:25:38 10° NW 17:30:01 85° NE 17:34:16 10° SE
Cosmos 2369 Rocket 3.6 17:25:20 10° WSW 17:30:26 35° NW 17:35:34 10° NNE
ASTEX 1 3.9 17:27:47 10° N 17:32:46 65° W 17:37:42 10° SSW
CZ-3B R/B 2.3 17:32:21 10° WSW 17:34:34 80° SSE 17:36:31 22° ENE
CENTAUR R/B 3.8 17:30:01 10° WNW 17:36:11 35° N 17:42:28 13° NE
FengYun 1-2 T 4.3 17:31:48 10° SE 17:37:11 57° ENE 17:42:35 10° N
NOSS 5 (C) 4.5 17:33:34 10° SW 17:37:18 74° NW 17:39:28 19° NE
Okean-O 2.6 17:33:36 10° SSE 17:38:03 88° ENE 17:42:31 10° NNW
Cosmos 2344 3.6 17:31:53 10° SW 17:39:22 84° SE 17:47:45 11° NE
Meteor 2-2 Rocket 4.4 17:34:20 10° S 17:40:00 52° E 17:45:36 10° NNE
YAOGAN 1 3.0 17:36:34 10° SE 17:40:34 38° ENE 17:44:35 10° N
Cosmos 773 Rocket 4.3 17:35:47 10° S 17:40:36 43° ESE 17:45:15 11° NE
Cosmos 2227 Rocket 2.2 17:39:11 10° NNW 17:44:51 65° NE 17:50:28 10° SE
Cosmos 2297 Rocket 2.1 17:39:51 10° NNW 17:45:31 70° ENE 17:51:10 10° SE
CSL-04 Rocket 3.8 17:40:28 10° SE 17:45:36 49° ENE 17:50:43 10° N
Cosmos 1455 3.8 17:42:18 10° SW 17:45:47 35° WNW 17:49:17 10° N
Cosmos 1633 3.1 17:45:57 10° N 17:49:20 35° ENE 17:52:43 10° SE
Elektron 3 4.0 17:46:11 10° WSW 17:49:21 62° NW 17:50:50 25° NE
Cosmos 1842 Rocket 4.0 17:46:27 10° SSW 17:50:55 66° WNW 17:55:24 10° N
ATLAS 3B R/B 3.8 17:45:14 10° WNW 17:51:03 31° NNW 17:55:53 14° NE
Cosmos 1538 Rocket 4.4 17:46:11 10° S 17:51:04 41° ESE 17:54:54 16° NE
Cosmos 2221 2.5 17:46:53 10° S 17:51:12 86° W 17:55:34 10° N
TELKOM 3 4.1 17:49:14 10° W 17:51:12 32° SSW 17:51:42 27° SSE
Cosmos 1862 3.8 17:51:43 10° N 17:55:26 36° ENE 17:57:44 19° SE
SKYMED 2 3.8 17:51:14 10° NNE 17:55:27 47° E 17:59:38 10° S
Cosmos 2233 Rocket 4.4 17:50:02 10° NNW 17:56:20 68° W 18:02:34 10° S
H-2A R/B 4.2 17:54:09 10° S 17:57:49 40° W 18:01:28 10° NNW
Meteor 1-27 4.2 17:54:45 10° SSW 18:00:24 89° WNW 18:06:12 10° NNE
Cosmos 1447 Rocket 4.5 17:56:28 10° S 18:02:42 87° E 18:09:02 10° N
YAOGAN 6 2.3 18:01:11 10° SSE 18:04:41 83° ENE 18:08:12 10° NNW
Cosmos 1238 Rocket 4.1 18:02:14 10° NNW 18:07:01 48° W 18:10:56 10° SSW
CZ-4 R/B 4.4 18:04:55 10° SSE 18:09:03 90° W 18:13:14 10° NNW
Cosmos 1805 Rocket 3.6 18:04:49 10° NNW 18:09:11 80° W 18:13:32 10° S
Cosmos 1356 Rocket 3.4 18:06:01 10° S 18:10:03 55° E 18:12:40 21° NNE
Cosmos 2082 3.6 18:04:46 10° NNW 18:10:23 65° NE 18:14:50 16° SE
Lacrosse 4 Rocket 3.7 18:10:00 10° SSE 18:10:04 10° SSE 18:10:04 10° SSE
Cosmos 2263 Rocket 3.4 18:08:42 10° NNW 18:13:06 23° NE 18:13:30 23° NE
Genesis I 3.2 18:09:27 10° SSW 18:13:25 62° SE 18:14:19 46° ENE
Cosmos 1943 Rocket 4.3 18:09:19 10° W 18:13:30 21° NW 18:17:43 10° NNE
COBE Rocket 4.1 18:09:41 10° N 18:14:34 70° WNW 18:19:17 10° SSW
Cosmos 1464 Rocket 3.8 18:08:58 10° N 18:15:12 75° ENE 18:21:19 10° SSE
Cosmos 1891 Rocket 4.4 18:09:37 10° N 18:16:05 76° E 18:22:23 10° SSE
BREEZE-M DEB (TANK) 4.3 18:14:08 10° SSW 18:17:07 16° SSE 18:17:34 16° SSE
Cosmos 1072 Rocket 4.4 18:16:46 10° N 18:22:55 89° E 18:29:06 10° S
Cosmos 397 4.4 18:19:23 10° NW 18:23:40 63° NE 18:24:17 54° E
Envisat 3.8 18:19:01 10° S 18:23:58 52° W 18:28:57 10° NNW
USA 215 3.2 18:21:36 25° ESE 18:25:43 89° SW 18:32:19 10° WNW
BREEZE-M DEB (TANK) 2.4 18:20:26 10° W 18:27:41 67° S 18:28:16 55° SE
Cosmos 1697 Rocket 3.5 18:22:55 10° SSE 18:26:56 31° SE 18:26:56 31° SE
Cosmos 1371 Rocket 4.2 18:26:48 10° NNW 18:31:51 46° ENE 18:32:09 46° ENE
Meteor 2-20 Rocket 4.4 18:26:32 10° S 18:32:38 88° ESE 18:38:50 10° N
Cosmos 724 4.2 18:28:35 10° NW 18:34:27 64° NE 18:36:08 44° ESE
USA 229 DEB 3.6 18:28:08 10° SSW 18:34:38 63° SE 18:37:27 36° ENE
USA 229 3.6 18:28:17 10° SSW 18:34:44 63° SE 18:37:30 36° ENE
CZ-4 R/B 2.2 18:31:41 10° S 18:35:46 52° W 18:39:50 10° NNW
ATLAS 5 CENTAUR R/B 2.8 18:30:12 10° NW 18:35:47 59° SW 18:42:10 10° SSE
NOSS 3-1 (A) 3.7 18:34:43 10° S 18:39:52 41° ESE 18:39:52 41° ESE
Cosmos 1633 Rocket 3.0 18:36:28 10° NNW 18:40:54 84° WSW 18:45:18 10° S
NOSS 3-1 (C) 3.3 18:36:17 10° SSW 18:41:49 62° SE 18:43:21 47° ENE
Cosmos 2278 Rocket 4.5 18:41:50 10° N 18:42:48 10° N 18:43:48 10° NNE
COSMO-SKYMED 1 3.0 18:39:12 10° N 18:43:30 62° WNW 18:47:48 10° SSW
MOS 1 4.3 18:44:55 52° E 18:45:24 54° ENE 18:50:55 10° N
Cosmos 1869 4.4 18:44:10 10° SSW 18:47:58 44° WNW 18:51:22 13° N
Cosmos 1666 Rocket 4.1 18:45:16 10° NNW 18:49:37 58° W 18:53:53 10° S
CZ-2D R/B 3.6 18:54:52 65° W 18:54:52 65° W 18:58:36 10° NNW
Cosmos 1939 Rocket 3.1 18:55:01 69° SW 18:55:18 72° WSW 18:59:28 10° NNW
NOAA 11 4.3 18:51:18 10° S 18:56:43 73° WSW 19:02:11 10° NNW
ARGOS 4.4 18:59:50 26° NNE 18:59:50 26° NNE 19:02:32 10° N
Cosmos 1932 4.4 18:51:34 10° NW 18:58:08 78° NE 18:59:37 56° ESE
H-2A R/B 3.3 19:02:21 29° NNE 19:02:21 29° NNE 19:05:11 10° N
Cosmos 1867 4.2 18:56:09 10° WSW 19:01:30 52° NW 19:03:22 36° NNE
Ariane Rocket 3.0 19:05:22 50° S 19:06:44 78° WSW 19:11:51 10° NNW
Cosmos 2034 Rocket 4.3 19:03:36 10° NNW 19:09:53 65° W 19:16:10 10° S
Cosmos 1656 3.6 19:05:34 10° SSW 19:11:07 81° WNW 19:11:50 68° N
Cosmos 2056 Rocket 4.0 19:19:10 10° NNW 19:23:01 52° NNW 19:23:01 52° NNW
USA 238 DEB 4.3 19:17:48 10° NW 19:24:31 44° NNE 19:24:32 44° NNE
Cosmos 2346 Rocket 4.5 19:18:21 10° SSW 19:24:37 80° W 19:30:52 10° N
USA 238 4.3 19:17:54 10° NW 19:24:37 44° NNE 19:24:38 44° NNE
Cosmos 1624 Rocket 4.3 19:19:20 10° NNW 19:23:46 62° NW 19:23:46 62° NW
Cosmos 2227 Rocket 4.2 19:23:51 10° NW 19:28:29 26° WSW 19:33:04 10° SSW
CENTAUR R/B 3.7 19:22:08 10° NW 19:28:52 37° NNE 19:29:38 36° NNE
Cosmos 2297 Rocket 4.3 19:24:38 10° NW 19:29:04 24° WSW 19:33:30 10° SSW
Tsikada Rocket 4.0 19:25:39 10° SSW 19:32:01 82° W 19:38:29 10° N
NOSS 3-2 (A) 4.4 19:26:25 10° NW 19:33:00 45° NNE 19:33:00 45° NNE
Cosmos 1634 Rocket 4.1 19:27:58 10° N 19:33:18 67° N 19:33:18 67° N
ATLAS 3B R/B 3.7 19:37:42 10° NW 19:43:07 32° N 19:43:07 32° N
Cosmos 2263 Rocket 3.5 19:52:15 10° NNW 19:55:11 32° NNW 19:55:11 32° NNW
USA 215 4.2 20:08:57 37° SW 20:09:13 37° SW 20:15:14 10° WNW
Cosmos 1697 Rocket 4.4 20:06:07 10° SW 20:08:43 27° WSW 20:08:43 27° WSW
H-2A R/B 4.5 20:42:59 18° NW 20:42:59 18° NW 20:44:35 10° NNW
CENTAUR R/B 4.4 21:13:09 10° NW 21:16:48 32° NW 21:16:48 32° NW
